Fort Yukon, AK

12:20 PM AKST on February 25, 2017 (GMT -0900)
Fort Yukon

Weather History for PFYU - May, 2013

Change the Weather History Date:

Tuesday, May 7, 2013

  Actual Average Record
Temperature  
Mean Temperature 32 °F -  
Max Temperature 42 °F 46 °F 64 °F (2005)
Min Temperature 21 °F 27 °F 21 °F (1997)
Degree Days  
Heating Degree Days 34    
Moisture  
Dew Point 16 °F    
Average Humidity 49    
Maximum Humidity 74    
Minimum Humidity 23    
Precipitation  
Precipitation 0.00 in - - ()
Sea Level Pressure  
Sea Level Pressure 30.15 in    
Wind  
Wind Speed 5 mph (WSW)    
Max Wind Speed 14 mph    
Max Gust Speed 20 mph    
Visibility 10 miles    
Events      
Averages and records for this station are not official NWS values.
T = Trace of Precipitation, MM = Missing Value Source: NWS Daily Summary

Daily Weather History Graph

Daily Weather History Graph

Search for Another Location

Airport or City:

Trip Planner

Search our weather history database for the weather conditions in past years. The results will help you decide how hot, cold, wet, or windy it might be!

Date:

Astronomy

May. 07, 2013 Rise Set
Actual Time 4:26 AM AKDT 10:52 PM AKDT
Civil Twilight 2:27 AM AKDT 1:02 AM AKDT
Nautical Twilight Sun does not rise Sun does not rise
Astronomical Twilight Sun does not rise Sun does not rise
Moon 4:12 AM AKDT (5/7) 8:10 PM AKDT (5/7)
Length of Visible Light 22h 35m
Length of Day
18h 25m
Waning Crescent, 5% of the Moon is Illuminated
May 7
Waning Crescent
May 9
New
May 17
First Quarter
May 24
Full
May 31
Last Quarter

Hourly Weather History & Observations

Time (AKDT) Temp. Windchill Dew Point Humidity Pressure Visibility Wind Dir Wind Speed Gust Speed Precip Events Conditions
12:16 AM 26.6 °F 22.6 °F 14.0 °F 59% 30.11 in 10.0 mi SW 3.5 mph - N/A   Clear
12:36 AM 26.6 °F 21.2 °F 14.0 °F 59% 30.12 in 10.0 mi SSW 4.6 mph - N/A   Clear
1:36 AM 26.6 °F 22.6 °F 14.0 °F 59% 30.13 in 10.0 mi WSW 3.5 mph - N/A   Clear
1:56 AM 26.6 °F 22.6 °F 15.8 °F 64% 30.13 in 10.0 mi WSW 3.5 mph - N/A   Clear
2:16 AM 24.8 °F - 14.0 °F 64% 30.13 in 10.0 mi Calm Calm - N/A   Clear
2:36 AM 24.8 °F - 14.0 °F 64% 30.14 in 10.0 mi Calm Calm - N/A   Clear
2:56 AM 24.8 °F - 14.0 °F 64% 30.14 in 10.0 mi Calm Calm - N/A   Clear
3:16 AM 24.8 °F 20.5 °F 14.0 °F 64% 30.14 in 10.0 mi WSW 3.5 mph - N/A   Clear
3:36 AM 24.8 °F 20.5 °F 14.0 °F 64% 30.15 in 10.0 mi SW 3.5 mph - N/A   Clear
3:56 AM 23.0 °F 18.4 °F 14.0 °F 68% 30.15 in 10.0 mi SSW 3.5 mph - N/A   Clear
4:16 AM 23.0 °F 18.4 °F 14.0 °F 68% 30.15 in 10.0 mi SW 3.5 mph - N/A   Clear
4:36 AM 21.2 °F - 14.0 °F 74% 30.15 in 10.0 mi Calm Calm - N/A   Clear
4:56 AM 21.2 °F 16.4 °F 14.0 °F 74% 30.16 in 10.0 mi SSW 3.5 mph - N/A   Clear
5:16 AM 21.2 °F - 14.0 °F 74% 30.16 in 10.0 mi Calm Calm - N/A   Clear
5:36 AM 21.2 °F 16.4 °F 14.0 °F 74% 30.16 in 10.0 mi SSW 3.5 mph - N/A   Clear
5:56 AM 23.0 °F 18.4 °F 14.0 °F 68% 30.16 in 10.0 mi SW 3.5 mph - N/A   Clear
6:16 AM 24.8 °F - 14.0 °F 64% 30.16 in 10.0 mi Calm Calm - N/A   Clear
6:36 AM 24.8 °F 20.5 °F 14.0 °F 64% 30.16 in 10.0 mi WSW 3.5 mph - N/A   Clear
6:56 AM 26.6 °F 22.6 °F 14.0 °F 59% 30.16 in 10.0 mi WSW 3.5 mph - N/A   Clear
7:16 AM 26.6 °F 21.2 °F 15.8 °F 64% 30.16 in 10.0 mi WSW 4.6 mph - N/A   Clear
7:56 AM 28.4 °F 24.6 °F 15.8 °F 59% 30.17 in 10.0 mi WSW 3.5 mph - N/A   Clear
8:16 AM 30.2 °F 26.7 °F 15.8 °F 55% 30.17 in 10.0 mi WSW 3.5 mph - N/A   Clear
8:36 AM 30.2 °F 24.3 °F 15.8 °F 55% 30.17 in 10.0 mi WSW 5.8 mph - N/A   Clear
8:56 AM 32.0 °F 26.4 °F 15.8 °F 51% 30.17 in 10.0 mi WSW 5.8 mph - N/A   Clear
9:16 AM 33.8 °F 28.6 °F 15.8 °F 48% 30.17 in 10.0 mi WSW 5.8 mph - N/A   Clear
9:36 AM 33.8 °F 28.6 °F 15.8 °F 48% 30.17 in 10.0 mi WSW 5.8 mph - N/A   Clear
9:56 AM 35.6 °F 29.9 °F 15.8 °F 44% 30.17 in 10.0 mi WSW 6.9 mph - N/A   Clear
10:16 AM 35.6 °F 29.9 °F 15.8 °F 44% 30.17 in 10.0 mi WSW 6.9 mph - N/A   Clear
10:36 AM 35.6 °F 27.1 °F 15.8 °F 44% 30.17 in 10.0 mi West 12.7 mph - N/A   Clear
10:56 AM 37.4 °F 30.8 °F 15.8 °F 41% 30.17 in 10.0 mi West 9.2 mph 16.1 mph N/A   Clear
11:16 AM 37.4 °F 31.4 °F 15.8 °F 41% 30.17 in 10.0 mi West 8.1 mph - N/A   Clear
11:36 AM 37.4 °F 30.3 °F 15.8 °F 41% 30.17 in 10.0 mi West 10.4 mph 16.1 mph N/A   Clear
11:56 AM 37.4 °F 29.3 °F 15.8 °F 41% 30.17 in 10.0 mi West 12.7 mph 17.3 mph N/A   Clear
12:16 PM 39.2 °F 33.0 °F 15.8 °F 39% 30.17 in 10.0 mi West 9.2 mph - N/A   Clear
12:36 PM 39.2 °F 33.0 °F 15.8 °F 39% 30.17 in 10.0 mi West 9.2 mph - N/A   Clear
12:56 PM 39.2 °F 33.6 °F 15.8 °F 39% 30.17 in 10.0 mi WSW 8.1 mph - N/A   Clear
1:16 PM 39.2 °F 32.0 °F 15.8 °F 39% 30.17 in 10.0 mi West 11.5 mph 17.3 mph N/A   Clear
1:36 PM 39.2 °F 34.2 °F 15.8 °F 39% 30.16 in 10.0 mi West 6.9 mph - N/A   Clear
1:56 PM 39.2 °F 31.2 °F 15.8 °F 39% 30.16 in 10.0 mi West 13.8 mph 18.4 mph N/A   Partly Cloudy
2:16 PM 41.0 °F 35.8 °F 15.8 °F 36% 30.16 in 10.0 mi West 8.1 mph - N/A   Partly Cloudy
2:36 PM 41.0 °F 36.4 °F 15.8 °F 36% 30.15 in 10.0 mi WSW 6.9 mph - N/A   Partly Cloudy
2:56 PM 41.0 °F 35.2 °F 15.8 °F 36% 30.15 in 10.0 mi West 9.2 mph - N/A   Partly Cloudy
3:16 PM 42.8 °F 37.5 °F 15.8 °F 34% 30.15 in 10.0 mi WSW 9.2 mph - N/A   Mostly Cloudy
3:36 PM 41.0 °F 37.1 °F 15.8 °F 36% 30.14 in 10.0 mi SW 5.8 mph - N/A   Mostly Cloudy
3:56 PM 41.0 °F 35.2 °F 15.8 °F 36% 30.14 in 10.0 mi West 9.2 mph - N/A   Scattered Clouds
4:16 PM 42.8 °F 37.5 °F 15.8 °F 34% 30.14 in 10.0 mi SW 9.2 mph - N/A   Scattered Clouds
4:56 PM 42.8 °F 37.0 °F 12.2 °F 29% 30.13 in 10.0 mi WSW 10.4 mph 16.1 mph N/A   Scattered Clouds
5:16 PM 42.8 °F 37.5 °F 14.0 °F 31% 30.13 in 10.0 mi SW 9.2 mph 19.6 mph N/A   Scattered Clouds
5:36 PM 42.8 °F 37.5 °F 14.0 °F 31% 30.13 in 10.0 mi West 9.2 mph 16.1 mph N/A   Mostly Cloudy
5:56 PM 42.8 °F 38.0 °F 14.0 °F 31% 30.12 in 10.0 mi West 8.1 mph - N/A   Mostly Cloudy
6:16 PM 42.8 °F 38.6 °F 15.8 °F 34% 30.12 in 10.0 mi WSW 6.9 mph - N/A   Mostly Cloudy
6:36 PM 41.0 °F 36.4 °F 15.8 °F 36% 30.12 in 10.0 mi WSW 6.9 mph - N/A   Mostly Cloudy
6:56 PM 41.0 °F 34.7 °F 17.6 °F 39% 30.12 in 10.0 mi West 10.4 mph - N/A   Overcast
7:16 PM 41.0 °F 35.2 °F 17.6 °F 39% 30.12 in 10.0 mi West 9.2 mph - N/A   Overcast
7:56 PM 42.8 °F 37.5 °F 17.6 °F 36% 30.11 in 10.0 mi West 9.2 mph - N/A   Overcast
8:16 PM 41.0 °F 36.4 °F 17.6 °F 39% 30.11 in 10.0 mi West 6.9 mph - N/A   Mostly Cloudy
8:36 PM 41.0 °F 37.1 °F 19.4 °F 42% 30.12 in 10.0 mi West 5.8 mph - N/A   Mostly Cloudy
9:16 PM 39.2 °F 33.6 °F 19.4 °F 45% 30.12 in 10.0 mi West 8.1 mph - N/A   Mostly Cloudy
9:36 PM 39.2 °F 33.6 °F 17.6 °F 42% 30.13 in 10.0 mi West 8.1 mph - N/A   Partly Cloudy
10:36 PM 37.4 °F 32.8 °F 19.4 °F 48% 30.14 in 10.0 mi West 5.8 mph - N/A   Mostly Cloudy
10:56 PM 35.6 °F 30.7 °F 19.4 °F 52% 30.15 in 10.0 mi West 5.8 mph - N/A   Partly Cloudy
11:16 PM 33.8 °F 29.6 °F 17.6 °F 52% 30.15 in 10.0 mi West 4.6 mph - N/A   Clear
11:36 PM 33.8 °F 30.8 °F 17.6 °F 52% 30.15 in 10.0 mi WSW 3.5 mph - N/A   Clear
11:56 PM 33.8 °F 29.6 °F 17.6 °F 52% 30.15 in 10.0 mi WSW 4.6 mph - N/A   Clear